ZHONGXING-10R

Last updated on Sun Apr 12 2026 00:02:57 GMT+0000 (Coordinated Universal Time)

1 63075U 25036A 26101.47128176 -.00000351 00000+0 00000+0 0 9991 2 63075 0.0537 253.1104 0001538 244.1526 342.6179 1.00270338 4296
UTC large
Height (km)
Speed (km/s)
/
Latitude / Longitude
Inclination (degrees)
Orbital Period (minutes)
Azimuth
Elevation
Range (km)
Doppler Factor

Next 0 passes for location: London (51.5072 / 0.1276)

Sorry there are no passes over London.
ZHONGXING-10R